Weather History for Macomb, IL

Change the Weather History Date:

Saturday, September 22, 2012

  Actual Average (KBRL) Record (KBRL)
Temperature  
Mean Temperature 51 °F 65 °F  
Max Temperature 62 °F 76 °F 94 °F (1937)
Min Temperature 40 °F 53 °F 31 °F (1995)
Degree Days  
Heating Degree Days 14 3  
Month to date heating degree days 31  
Since 1 July heating degree days 35  
Cooling Degree Days 0 3  
Month to date cooling degree days 121  
Year to date cooling degree days 1164  
Growing Degree Days 1 (Base 50)    
Moisture  
Dew Point 39 °F    
Average Humidity 65    
Maximum Humidity 100    
Minimum Humidity 34    
Precipitation  
Precipitation 0.00 in 0.12 in 3.27 in (2000)
Month to date precipitation 2.69  
Year to date precipitation 29.94  
Sea Level Pressure  
Sea Level Pressure 30.09 in    
Wind  
Wind Speed 10 mph (NW)    
Max Wind Speed 21 mph    
Max Gust Speed 31 mph    
Visibility 10 miles    
Events      
T = Trace of Precipitation, MM = Missing Value Source: NWS Daily Summary

Daily Weather History Graph

Daily Weather History Graph

Search for Another Location

Airport:

Trip Planner

Search our weather history database for the weather conditions in past years. The results will help you decide how hot, cold, wet, or windy it might be!

Date:

Astronomy

Sep. 22, 2012 Rise Set
Actual Time 6:50 AM CDT 6:58 PM CDT
Civil Twilight 6:23 AM CDT 7:26 PM CDT
Nautical Twilight 5:51 AM CDT 7:57 PM CDT
Astronomical Twilight 5:19 AM CDT 8:30 PM CDT
Moon 2:10 PM CDT (9/22) No Moon Set
Length of Visible Light 13h 02m
Length of Day
12h 08m
Waxing Crescent, 49% of the Moon is Illuminated
Sep 22
Waxing Crescent
Sep 22
First Quarter
Sep 29
Full
Oct 8
Last Quarter
Oct 15
New

Hourly Weather History & Observations

Time (CDT) Temp. Windchill Dew Point Humidity Pressure Visibility Wind Dir Wind Speed Gust Speed Precip Events Conditions
12:15 AM 43.7 °F 41.1 °F 43.0 °F 97% 29.90 in 10.0 mi WSW 4.6 mph - N/A   Scattered Clouds
12:35 AM 44.6 °F 42.2 °F 44.6 °F 100% 29.90 in 10.0 mi SW 4.6 mph - N/A   Scattered Clouds
12:55 AM 43.2 °F 39.7 °F 42.6 °F 98% 29.89 in 10.0 mi WSW 5.8 mph - N/A   Clear
1:15 AM 43.3 °F 39.9 °F 42.8 °F 98% 29.89 in 7.0 mi WSW 5.8 mph - N/A   Clear
1:35 AM 45.3 °F 42.3 °F 45.0 °F 99% 29.90 in 10.0 mi WSW 5.8 mph - N/A   Clear
1:55 AM 44.8 °F 41.0 °F 44.2 °F 98% 29.90 in 10.0 mi SW 6.9 mph - N/A   Clear
2:15 AM 46.0 °F 43.1 °F 45.5 °F 98% 29.89 in 10.0 mi SW 5.8 mph - N/A   Clear
2:35 AM 48.2 °F - 47.7 °F 98% 29.89 in 10.0 mi WSW 6.9 mph - N/A   Clear
2:55 AM 48.7 °F - 47.7 °F 96% 29.88 in 10.0 mi SW 8.1 mph - N/A   Clear
3:15 AM 49.1 °F - 47.8 °F 95% 29.88 in 10.0 mi SW 6.9 mph - N/A   Clear
3:35 AM 49.5 °F - 47.8 °F 94% 29.88 in 10.0 mi SW 9.2 mph - N/A   Clear
3:55 AM 49.3 °F - 47.7 °F 94% 29.88 in 10.0 mi SW 6.9 mph - N/A   Clear
4:15 AM 50.0 °F - 48.6 °F 95% 29.88 in 10.0 mi WSW 9.2 mph - N/A   Clear
4:35 AM 50.7 °F - 48.6 °F 92% 29.89 in 10.0 mi WSW 8.1 mph - N/A   Clear
4:55 AM 50.9 °F - 48.7 °F 92% 29.90 in 10.0 mi WSW 9.2 mph - N/A   Clear
5:15 AM 51.4 °F - 48.7 °F 90% 29.90 in 10.0 mi West 9.2 mph - N/A   Clear
5:35 AM 52.2 °F - 49.1 °F 89% 29.92 in 10.0 mi West 12.7 mph - N/A   Scattered Clouds
5:55 AM 51.1 °F - 48.6 °F 91% 29.94 in 10.0 mi West 10.4 mph - N/A   Scattered Clouds
6:15 AM 51.1 °F - 48.2 °F 90% 29.95 in 10.0 mi WNW 10.4 mph - N/A   Clear
6:35 AM 51.1 °F - 47.5 °F 87% 29.97 in 10.0 mi WNW 15.0 mph - N/A   Clear
6:55 AM 50.7 °F - 45.5 °F 82% 29.99 in 10.0 mi NW 12.7 mph 19.6 mph N/A   Clear
7:15 AM 50.0 °F - 44.8 °F 82% 30.01 in 10.0 mi NW 13.8 mph 18.4 mph N/A   Clear
7:35 AM 49.5 °F - 44.8 °F 84% 30.03 in 10.0 mi NNW 12.7 mph - N/A   Clear
7:55 AM 50.0 °F - 43.9 °F 79% 30.04 in 10.0 mi NW 15.0 mph 18.4 mph N/A   Clear
8:15 AM 49.8 °F - 40.1 °F 69% 30.05 in 10.0 mi NNW 19.6 mph 31.1 mph N/A   Clear
8:35 AM 50.4 °F - 41.4 °F 71% 30.06 in 10.0 mi NNW 13.8 mph 24.2 mph N/A   Clear
8:55 AM 50.0 °F - 37.4 °F 62% 30.08 in 10.0 mi NW 17.3 mph 25.3 mph N/A   Clear
9:15 AM 50.5 °F - 32.0 °F 49% 30.09 in 10.0 mi NNW 18.4 mph 27.6 mph N/A   Clear
9:35 AM 50.9 °F - 28.9 °F 43% 30.10 in 10.0 mi NNW 20.7 mph 26.5 mph N/A   Clear
9:55 AM 51.6 °F - 28.2 °F 41% 30.11 in 10.0 mi NW 19.6 mph 25.3 mph N/A   Clear
10:15 AM 52.2 °F - 28.4 °F 40% 30.12 in 10.0 mi NNW 19.6 mph 27.6 mph N/A   Clear
10:35 AM 52.9 °F - 28.8 °F 40% 30.13 in 10.0 mi NW 17.3 mph 26.5 mph N/A   Clear
10:55 AM 53.8 °F - 29.5 °F 39% 30.13 in 10.0 mi NNW 16.1 mph 23.0 mph N/A   Clear
11:15 AM 54.7 °F - 30.4 °F 40% 30.14 in 10.0 mi NW 18.4 mph 26.5 mph N/A   Clear
11:35 AM 55.4 °F - 29.5 °F 37% 30.14 in 10.0 mi NW 15.0 mph 25.3 mph N/A   Clear
11:55 AM 57.0 °F - 31.6 °F 38% 30.15 in 10.0 mi NW 18.4 mph 27.6 mph N/A   Clear
12:15 PM 58.1 °F - 31.3 °F 36% 30.15 in 10.0 mi NNW 19.6 mph 25.3 mph N/A   Clear
12:35 PM 58.3 °F - 31.5 °F 36% 30.16 in 10.0 mi NNW 20.7 mph 26.5 mph N/A   Clear
12:55 PM 59.0 °F - 32.0 °F 36% 30.16 in 10.0 mi NNW 13.8 mph 23.0 mph N/A   Clear
1:15 PM 59.2 °F - 32.0 °F 36% 30.16 in 10.0 mi NNW 17.3 mph 27.6 mph N/A   Clear
1:35 PM 60.3 °F - 31.8 °F 34% 30.16 in 10.0 mi NNW 17.3 mph 21.9 mph N/A   Clear
1:55 PM 61.0 °F - 32.5 °F 34% 30.16 in 10.0 mi NNW 13.8 mph 24.2 mph N/A   Clear
2:15 PM 61.2 °F - 32.7 °F 34% 30.16 in 10.0 mi NNW 11.5 mph 20.7 mph N/A   Clear
2:35 PM 61.0 °F - 32.7 °F 35% 30.16 in 10.0 mi NW 18.4 mph 23.0 mph N/A   Clear
2:55 PM 62.2 °F - 33.6 °F 34% 30.16 in 10.0 mi NW 16.1 mph 21.9 mph N/A   Clear
3:15 PM 61.9 °F - 33.1 °F 34% 30.16 in 10.0 mi NW 12.7 mph 20.7 mph N/A   Clear
3:35 PM 62.6 °F - 33.8 °F 34% 30.17 in 10.0 mi NW 15.0 mph - N/A   Clear
3:55 PM 61.9 °F - 34.7 °F 36% 30.17 in 10.0 mi NW 13.8 mph 18.4 mph N/A   Clear
4:15 PM 62.2 °F - 34.9 °F 36% 30.17 in 10.0 mi NNW 10.4 mph 17.3 mph N/A   Clear
4:35 PM 61.7 °F - 34.7 °F 36% 30.18 in 10.0 mi NW 9.2 mph 18.4 mph N/A   Clear
4:55 PM 61.7 °F - 34.9 °F 37% 30.18 in 10.0 mi NW 9.2 mph 19.6 mph N/A   Clear
5:15 PM 61.3 °F - 35.1 °F 37% 30.18 in 10.0 mi NW 15.0 mph 21.9 mph N/A   Clear
5:35 PM 60.8 °F - 35.1 °F 38% 30.19 in 10.0 mi NW 12.7 mph 18.4 mph N/A   Clear
5:55 PM 60.3 °F - 35.6 °F 40% 30.20 in 10.0 mi NNW 11.5 mph - N/A   Clear
6:15 PM 59.7 °F - 36.0 °F 41% 30.20 in 10.0 mi NW 11.5 mph - N/A   Clear
6:35 PM 58.6 °F - 36.3 °F 43% 30.20 in 10.0 mi NNW 8.1 mph - N/A   Clear
6:55 PM 55.8 °F - 37.2 °F 50% 30.20 in 10.0 mi NNW 6.9 mph - N/A   Clear
7:15 PM 52.9 °F - 37.4 °F 56% 30.20 in 10.0 mi NNW 6.9 mph - N/A   Clear
7:35 PM 51.8 °F - 37.4 °F 58% 30.21 in 10.0 mi NW 5.8 mph - N/A   Clear
7:55 PM 51.6 °F - 37.6 °F 59% 30.22 in 10.0 mi NW 8.1 mph - N/A   Scattered Clouds
8:15 PM 49.6 °F - 37.8 °F 64% 30.22 in 10.0 mi NW 6.9 mph - N/A   Clear
8:35 PM 48.9 °F - 37.9 °F 66% 30.23 in 10.0 mi NNW 6.9 mph - N/A   Clear
8:55 PM 47.1 °F - 38.1 °F 71% 30.24 in 10.0 mi NNW 6.9 mph - N/A   Clear
9:15 PM 45.5 °F 42.5 °F 38.3 °F 76% 30.24 in 10.0 mi NNW 5.8 mph - N/A   Clear
9:35 PM 46.8 °F - 38.5 °F 73% 30.24 in 10.0 mi NNW 5.8 mph - N/A   Clear
9:55 PM 46.4 °F 44.3 °F 38.3 °F 73% 30.25 in 10.0 mi NNW 4.6 mph - N/A   Clear
10:15 PM 43.3 °F 41.7 °F 37.4 °F 80% 30.26 in 10.0 mi NW 3.5 mph - N/A   Clear
10:35 PM 42.8 °F 40.1 °F 37.0 °F 80% 30.26 in 10.0 mi WNW 4.6 mph - N/A   Clear
10:55 PM 40.5 °F 36.5 °F 36.0 °F 84% 30.26 in 10.0 mi WNW 5.8 mph - N/A   Clear
11:15 PM 40.5 °F 35.8 °F 36.7 °F 86% 30.26 in 10.0 mi NW 6.9 mph - N/A   Clear
11:35 PM 41.2 °F 36.6 °F 37.2 °F 86% 30.26 in 10.0 mi NW 6.9 mph - N/A   Clear
11:55 PM 41.9 °F 38.2 °F 37.4 °F 84% 30.26 in 10.0 mi NW 5.8 mph - N/A   Clear